Home > Weather > Hobart > Past weeks

Flag for Australia Weather for the Past 2 Weeks in Hobart, Tasmania, Australia

Now
59 °F

Passing clouds.


Feels Like: 57 °F
Forecast: 51 / 66 °F
Wind: 13 mph from Northwest

Location: Hobart Airport

Current Time: Feb 14, 2016 at 9:25:30 PM

Latest Report: Feb 14, 2016 at 9:00 PM


Visibility: N/A

Pressure: 29.74 "Hg

Humidity: 39%

Dew point: 34 °F

Location of HobartLocation

Historic Weather in Hobart — Graph

°F

Hobart Temperature Yesterday

Maximum temperature yesterday: 82 °F (at 1:00 PM)
Minimum temperature yesterday: 63 °F (at 5:30 AM)
Average temperature yesterday: 70 °F

High & Low Weather Summary for the Past Weeks

 TemperatureHumidityPressure
High88 °F (Feb 2, 4:00 PM)100% (Feb 1, 6:30 AM)30.24 "Hg (Feb 1, 6:30 AM)
Low52 °F (Feb 4, 4:30 AM)19% (Feb 2, 5:30 PM)29.53 "Hg (Feb 2, 5:30 PM)
Average67 °F65%29.90 "Hg
* Reported Jan 30 8:00 PM — Feb 14 8:00 PM, Hobart, Weather by CustomWeather, © 2016

Note: Actual official high and low records may vary slightly from our data, if they occured in-between our weather recording intervals... More about our weather records

Advertising

Hobart Weather History for the Previous 24 Hours

 ConditionsComfort  
Time TempWeatherWind HumidityBarometerVisibility
8:00 PM
Sun, Feb 14
61 °FSunny.18 mph36%29.71 "Hg10 mi
7:30 PM63 °FSunny.17 mph34%29.71 "Hg10 mi
7:00 PM63 °FSunny.22 mph32%29.68 "Hg10 mi
6:30 PM64 °FSunny.20 mph32%29.68 "Hg10 mi
6:00 PM66 °FSunny.18 mph28%29.65 "Hg10 mi
5:55 PM66 °FSunny.21 mph28%29.65 "Hg10 mi
5:00 PM68 °FScattered clouds.24 mph28%29.62 "HgN/A
4:30 PM66 °FScattered clouds.28 mph32%29.62 "HgN/A
4:00 PM68 °FScattered clouds.29 mph33%29.59 "HgN/A
3:00 PM68 °FPartly sunny.32 mph35%29.56 "HgN/A
2:30 PM68 °FSunny.31 mph38%29.56 "Hg10 mi
2:00 PM64 °FScattered showers. Clear.26 mph52%29.56 "HgN/A
1:54 PM63 °FSprinkles. Clear.26 mph59%29.56 "HgN/A
1:00 PM70 °FSunny.25 mph33%29.56 "Hg10 mi
12:00 PM70 °FSunny.25 mph29%29.56 "Hg10 mi
11:30 AM70 °FSunny.24 mph33%29.56 "Hg10 mi
11:00 AM70 °FScattered clouds.22 mph29%29.56 "HgN/A
10:00 AM68 °FPassing clouds.20 mph38%29.56 "HgN/A
9:30 AM66 °FPassing clouds.16 mph46%29.59 "HgN/A
9:00 AM63 °FScattered clouds.15 mph49%29.59 "HgN/A
8:30 AM64 °FPassing clouds.16 mph46%29.59 "HgN/A
8:00 AM63 °FScattered showers. Passing clouds.10 mph49%29.59 "HgN/A
7:30 AM61 °FScattered clouds.8 mph52%29.59 "HgN/A
7:00 AM59 °FPassing clouds.8 mph55%29.59 "HgN/A
6:30 AM59 °FPassing clouds.8 mph55%29.56 "HgN/A
6:00 AM59 °FPassing clouds.10 mph55%29.56 "HgN/A
5:30 AM59 °FPassing clouds.10 mph55%29.56 "HgN/A
5:00 AM59 °FClear.15 mph55%29.56 "Hg10 mi
4:30 AM61 °FPassing clouds.9 mph48%29.56 "HgN/A
4:00 AM59 °FPassing clouds.8 mph55%29.59 "HgN/A
3:30 AM61 °FPassing clouds.13 mph52%29.59 "HgN/A
3:00 AM61 °FPassing clouds.16 mph48%29.59 "HgN/A
2:30 AM61 °FClear.17 mph55%29.59 "Hg10 mi
2:00 AM61 °FClear.14 mph52%29.59 "Hg10 mi
1:30 AM61 °FPassing clouds.15 mph52%29.59 "HgN/A
1:00 AM63 °FPassing clouds.20 mph49%29.59 "HgN/A
12:30 AM63 °FPassing clouds.15 mph45%29.59 "HgN/A
12:00 AM63 °FPassing clouds.13 mph52%29.59 "HgN/A
11:30 PM
Sat, Feb 13
64 °FPassing clouds.8 mph56%29.59 "HgN/A
11:00 PM64 °FPartly cloudy.7 mph78%29.59 "HgN/A
10:30 PM66 °FPassing clouds.8 mph73%29.59 "HgN/A
10:00 PM66 °FPartly cloudy.7 mph73%29.59 "HgN/A
9:00 PM64 °FPassing clouds.9 mph78%29.59 "HgN/A
Weather by CustomWeather, © 2016

See weather overviewHow to use our weather pages